Weather History for Cross City, FL

Change the Weather History Date:

Tuesday, August 27, 2013

  Actual Average Record
Temperature  
Mean Temperature 82 °F 81 °F  
Max Temperature 91 °F 90 °F 97 °F (1998)
Min Temperature 73 °F 71 °F 68 °F (2014)
Degree Days  
Heating Degree Days 0 0  
Month to date heating degree days 0 0  
Since 1 June heating degree days 0 0  
Since 1 July heating degree days 0 0  
Cooling Degree Days 17 16  
Month to date cooling degree days 474 442  
Year to date cooling degree days 1977 1876  
Since 1 June cooling degree days 1442 1397  
Growing Degree Days 32 (Base 50)    
Moisture  
Dew Point 73 °F    
Average Humidity 81    
Maximum Humidity 100    
Minimum Humidity 49    
Precipitation  
Precipitation 0.85 in 0.25 in 1.24 in (2002)
Month to date precipitation 9.81 6.48  
Year to date precipitation 52.71 34.40  
Sea Level Pressure  
Sea Level Pressure 30.05 in    
Wind  
Wind Speed 4 mph (ENE)    
Max Wind Speed 14 mph    
Max Gust Speed 16 mph    
T = Trace of Precipitation, MM = Missing Value Source: NWS Daily Summary

Daily Weather History Graph

Daily Weather History Graph

Search for Another Location

Airport:

Trip Planner

Search our weather history database for the weather conditions in past years. The results will help you decide how hot, cold, wet, or windy it might be!

Date:

Astronomy

Aug. 27, 2013 Rise Set
Actual Time 7:07 AM EDT 8:00 PM EDT
Civil Twilight 6:42 AM EDT 8:24 PM EDT
Nautical Twilight 6:13 AM EDT 8:53 PM EDT
Astronomical Twilight 5:44 AM EDT 9:22 PM EDT
Moon No Moon Rise 1:31 PM EDT (8/27)
Length of Visible Light 13h 41m
Length of Day
12h 52m
Waning Gibbous, 57% of the Moon is Illuminated
Aug 27
Waning Gibbous
Aug 28
Last Quarter
Sep 5
New
Sep 12
First Quarter
Sep 19
Full

Hourly Weather History & Observations

Time (EDT) Temp. Heat Index Dew Point Humidity Pressure Visibility Wind Dir Wind Speed Gust Speed Precip Events Conditions
12:53 AM 75.0 °F - 73.0 °F 94% 30.10 in - NNE 3.5 mph - 0.01 in   Unknown
1:53 AM 75.0 °F - 73.0 °F 94% 30.09 in - North 3.5 mph - 0.01 in   Unknown
2:53 AM 75.0 °F - 73.0 °F 94% 30.07 in - NE 3.5 mph - N/A   Unknown
3:53 AM 73.9 °F - 73.0 °F 97% 30.07 in - NE 3.5 mph - N/A   Unknown
4:53 AM 73.9 °F - 73.0 °F 97% 30.05 in - Calm Calm - N/A   Unknown
5:53 AM 73.0 °F - 72.0 °F 96% 30.06 in - Calm Calm - N/A   Unknown
6:53 AM 73.0 °F - 72.0 °F 96% 30.07 in - NE 3.5 mph - N/A   Unknown
7:53 AM 73.9 °F - 73.0 °F 97% 30.07 in - NE 3.5 mph - N/A   Unknown
8:53 AM 77.0 °F - 73.0 °F 88% 30.08 in - ENE 5.8 mph - N/A   Unknown
9:53 AM 81.0 °F 86.2 °F 73.9 °F 79% 30.08 in - East 5.8 mph - N/A   Unknown
10:53 AM 84.0 °F 91.2 °F 73.9 °F 72% 30.09 in - Variable 5.8 mph - N/A   Unknown
11:53 AM 86.0 °F 93.0 °F 73.0 °F 65% 30.08 in - SE 4.6 mph - N/A   Unknown
12:53 PM 88.0 °F 94.7 °F 72.0 °F 59% 30.06 in - ESE 4.6 mph - N/A   Unknown
1:53 PM 89.1 °F 94.1 °F 70.0 °F 53% 30.05 in - East 5.8 mph - N/A   Unknown
2:53 PM 91.0 °F 96.6 °F 70.0 °F 50% 30.03 in - Variable 3.5 mph - N/A   Unknown
3:53 PM 90.0 °F 95.4 °F 70.0 °F 52% 30.01 in - Calm Calm - N/A   Unknown
4:53 PM 90.0 °F 95.4 °F 70.0 °F 52% 30.00 in - East 5.8 mph - N/A   Unknown
5:53 PM 84.9 °F 92.1 °F 73.9 °F 69% 30.00 in - West 9.2 mph - N/A   Unknown
6:53 PM 78.1 °F - 73.9 °F 87% 30.01 in - East 9.2 mph - 0.07 in   Unknown
7:53 PM 75.9 °F - 73.0 °F 91% 30.01 in - SW 3.5 mph - 0.75 in   Unknown
8:53 PM 77.0 °F - 73.0 °F 88% 30.03 in - NW 3.5 mph - N/A   Unknown
9:53 PM 75.9 °F - 73.9 °F 94% 30.04 in - Calm Calm - 0.01 in   Unknown
10:53 PM 75.9 °F - 73.9 °F 94% 30.04 in - Calm Calm - 0.01 in   Unknown
11:53 PM 75.9 °F - 73.9 °F 94% 30.05 in - Calm Calm - N/A   Unknown